Weather History for Washington, GA

Change the Weather History Date:

Thursday, December 26, 2013

  Actual Average (KDBN) Record (KDBN)
Temperature  
Mean Temperature 46 °F -  
Max Temperature 57 °F 55 °F 79 °F (1982)
Min Temperature 35 °F 33 °F 6 °F (1983)
Degree Days  
Heating Degree Days 19    
Moisture  
Dew Point 33 °F    
Average Humidity 70    
Maximum Humidity 100    
Minimum Humidity 33    
Precipitation  
Precipitation 0.00 in - - ()
Sea Level Pressure  
Sea Level Pressure 30.31 in    
Wind  
Wind Speed 2 mph (WNW)    
Max Wind Speed 7 mph    
Max Gust Speed -    
Visibility 10 miles    
Events Rain    
Averages and records for this station are not official NWS values.
T = Trace of Precipitation, MM = Missing Value Source: NWS Daily Summary

Daily Weather History Graph

Daily Weather History Graph

Search for Another Location

Airport:

Trip Planner

Search our weather history database for the weather conditions in past years. The results will help you decide how hot, cold, wet, or windy it might be!

Date:

Astronomy

Dec. 26, 2013 Rise Set
Actual Time 7:34 AM EST 5:29 PM EST
Civil Twilight 7:06 AM EST 5:57 PM EST
Nautical Twilight 6:35 AM EST 6:28 PM EST
Astronomical Twilight 6:05 AM EST 6:58 PM EST
Moon 1:14 AM EST 12:53 PM EST
Length of Visible Light 10h 50m
Length of Day
9h 55m
Last Quarter, 38% of the Moon is Illuminated
Dec 26
Last Quarter
Jan 1
New
Jan 7
First Quarter
Jan 15
Full
Jan 24
Last Quarter

Hourly Weather History & Observations

Time (EST) Temp. Windchill Dew Point Humidity Pressure Visibility Wind Dir Wind Speed Gust Speed Precip Events Conditions
12:15 AM 41.0 °F - 26.6 °F 57% 30.36 in 10.0 mi Calm Calm - N/A   Light Drizzle
12:35 AM 41.0 °F 39.0 °F 26.6 °F 57% 30.36 in 10.0 mi NE 3.5 mph - N/A Rain Light Rain
12:55 AM 39.2 °F - 32.0 °F 75% 30.35 in 10.0 mi Calm Calm - N/A   Mostly Cloudy
1:15 AM 39.2 °F - 30.2 °F 70% 30.35 in 10.0 mi Calm Calm - N/A   Mostly Cloudy
1:35 AM 39.2 °F 37.0 °F 30.2 °F 70% 30.34 in 10.0 mi North 3.5 mph - N/A   Mostly Cloudy
1:55 AM 39.2 °F 37.0 °F 28.4 °F 65% 30.35 in 10.0 mi North 3.5 mph - N/A   Mostly Cloudy
2:15 AM 39.2 °F - 30.2 °F 70% 30.36 in 10.0 mi Calm Calm - N/A   Scattered Clouds
2:35 AM 39.2 °F - 30.2 °F 70% 30.36 in 10.0 mi Calm Calm - N/A   Mostly Cloudy
2:50 AM 39.2 °F - 32.0 °F 75% 30.35 in 4.0 mi Calm Calm - N/A   Drizzle
3:15 AM 37.4 °F - 35.6 °F 93% 30.35 in 10.0 mi Calm Calm - N/A   Mostly Cloudy
3:35 AM 37.4 °F - 35.6 °F 93% 30.35 in 10.0 mi Calm Calm - N/A   Overcast
3:55 AM 37.4 °F - 35.6 °F 93% 30.34 in 10.0 mi Calm Calm - N/A   Overcast
4:15 AM 39.2 °F - 35.6 °F 87% 30.34 in 10.0 mi Calm Calm - N/A   Mostly Cloudy
4:35 AM 39.2 °F - 33.8 °F 81% 30.34 in 10.0 mi Calm Calm - N/A   Mostly Cloudy
4:55 AM 39.2 °F - 37.4 °F 93% 30.33 in 10.0 mi Calm Calm - N/A   Mostly Cloudy
5:15 AM 39.2 °F - 35.6 °F 87% 30.32 in 10.0 mi Calm Calm - N/A   Mostly Cloudy
5:35 AM 39.2 °F - 35.6 °F 87% 30.33 in 10.0 mi Calm Calm - N/A   Overcast
5:55 AM 39.2 °F - 35.6 °F 87% 30.32 in 10.0 mi Calm Calm - N/A   Overcast
6:15 AM 39.2 °F - 35.6 °F 87% 30.33 in 10.0 mi Calm Calm - N/A   Overcast
6:35 AM 39.2 °F - 35.6 °F 87% 30.32 in 10.0 mi Calm Calm - N/A   Overcast
6:55 AM 39.2 °F - 35.6 °F 87% 30.32 in 10.0 mi Calm Calm - N/A   Overcast
7:15 AM 39.2 °F - 37.4 °F 93% 30.33 in 10.0 mi Calm Calm - N/A   Overcast
7:35 AM 39.2 °F - 35.6 °F 87% 30.33 in 10.0 mi Calm Calm - N/A   Mostly Cloudy
7:55 AM 39.2 °F 37.0 °F 35.6 °F 87% 30.33 in 10.0 mi NNW 3.5 mph - N/A   Mostly Cloudy
8:15 AM 39.2 °F - 35.6 °F 87% 30.34 in 10.0 mi Calm Calm - N/A   Mostly Cloudy
8:35 AM 39.2 °F 37.0 °F 37.4 °F 93% 30.34 in 10.0 mi NW 3.5 mph - N/A   Scattered Clouds
8:55 AM 39.2 °F - 35.6 °F 87% 30.35 in 10.0 mi Calm Calm - N/A   Clear
9:15 AM 41.0 °F 39.0 °F 32.0 °F 70% 30.35 in 10.0 mi WNW 3.5 mph - N/A   Clear
9:35 AM 42.8 °F - 32.0 °F 66% 30.36 in 10.0 mi Calm Calm - N/A   Clear
9:55 AM 44.6 °F 41.4 °F 30.2 °F 57% 30.36 in 10.0 mi WNW 5.8 mph - N/A   Clear
10:15 AM 44.6 °F 42.2 °F 28.4 °F 53% 30.36 in 10.0 mi WNW 4.6 mph - N/A   Clear
10:35 AM 44.6 °F 42.2 °F 30.2 °F 57% 30.36 in 10.0 mi NW 4.6 mph - N/A   Clear
10:55 AM 46.4 °F 44.3 °F 30.2 °F 53% 30.36 in 10.0 mi West 4.6 mph - N/A   Clear
11:15 AM 48.2 °F - 30.2 °F 50% 30.34 in 10.0 mi NW 4.6 mph - N/A   Clear
11:35 AM 48.2 °F - 30.2 °F 50% 30.34 in 10.0 mi NW 5.8 mph - N/A   Clear
11:55 AM 48.2 °F - 28.4 °F 46% 30.33 in 10.0 mi West 5.8 mph - N/A   Clear
12:15 PM 48.2 °F - 28.4 °F 46% 30.32 in 10.0 mi WNW 4.6 mph - N/A   Clear
12:35 PM 50.0 °F - 28.4 °F 43% 30.31 in 10.0 mi NNW 3.5 mph - N/A   Clear
12:55 PM 51.8 °F - 30.2 °F 44% 30.30 in 10.0 mi West 6.9 mph - N/A   Clear
1:15 PM 53.6 °F - 30.2 °F 41% 30.29 in 10.0 mi North 3.5 mph - N/A   Clear
1:35 PM 53.6 °F - 28.4 °F 38% 30.28 in 10.0 mi WNW 5.8 mph - N/A   Clear
1:55 PM 53.6 °F - 28.4 °F 38% 30.26 in 10.0 mi NNW 5.8 mph - N/A   Clear
2:15 PM 53.6 °F - 28.4 °F 38% 30.26 in 10.0 mi WNW 4.6 mph - N/A   Clear
2:35 PM 57.2 °F - 28.4 °F 33% 30.26 in 10.0 mi WNW 6.9 mph - N/A   Clear
2:55 PM 55.4 °F - 28.4 °F 36% 30.26 in 10.0 mi West 5.8 mph - N/A   Clear
3:15 PM 57.2 °F - 30.2 °F 36% 30.24 in 10.0 mi West 4.6 mph - N/A   Clear
3:35 PM 57.2 °F - 30.2 °F 36% 30.24 in 10.0 mi West 5.8 mph - N/A   Clear
3:55 PM 57.2 °F - 30.2 °F 36% 30.26 in 10.0 mi WNW 4.6 mph - N/A   Clear
4:15 PM 57.2 °F - 30.2 °F 36% 30.26 in 10.0 mi Calm Calm - N/A   Clear
4:35 PM 53.6 °F - 32.0 °F 44% 30.26 in 10.0 mi Calm Calm - N/A   Clear
4:55 PM 53.6 °F - 35.6 °F 51% 30.26 in 10.0 mi Calm Calm - N/A   Clear
5:15 PM 48.2 °F - 37.4 °F 66% 30.26 in 10.0 mi Calm Calm - N/A   Clear
5:35 PM 46.4 °F - 37.4 °F 71% 30.26 in 10.0 mi Calm Calm - N/A   Clear
5:55 PM 44.6 °F - 37.4 °F 76% 30.27 in 10.0 mi Calm Calm - N/A   Clear
6:15 PM 44.6 °F - 37.4 °F 76% 30.27 in 10.0 mi Calm Calm - N/A   Clear
6:35 PM 44.6 °F - 37.4 °F 76% 30.28 in 10.0 mi Calm Calm - N/A   Clear
6:55 PM 42.8 °F - 37.4 °F 81% 30.28 in 10.0 mi Calm Calm - N/A   Clear
7:15 PM 42.8 °F - 37.4 °F 81% 30.29 in 10.0 mi Calm Calm - N/A   Clear
7:35 PM 42.8 °F 41.1 °F 35.6 °F 76% 30.30 in 10.0 mi SSW 3.5 mph - N/A   Clear
7:55 PM 42.8 °F - 35.6 °F 76% 30.30 in 10.0 mi Calm Calm - N/A   Clear
8:15 PM 41.0 °F - 37.4 °F 87% 30.30 in 10.0 mi Calm Calm - N/A   Clear
8:35 PM 41.0 °F 39.0 °F 35.6 °F 81% 30.30 in 10.0 mi SSW 3.5 mph - N/A   Clear
8:55 PM 42.8 °F 41.1 °F 33.8 °F 70% 30.31 in 10.0 mi SW 3.5 mph - N/A   Clear
9:15 PM 39.2 °F - 37.4 °F 93% 30.31 in 10.0 mi Calm Calm - N/A   Clear
9:35 PM 39.2 °F - 35.6 °F 87% 30.31 in 10.0 mi Calm Calm - N/A   Clear
9:55 PM 39.2 °F - 37.4 °F 93% 30.31 in 10.0 mi Calm Calm - N/A   Clear
10:15 PM 37.4 °F - 37.4 °F 100% 30.31 in 10.0 mi Calm Calm - N/A   Clear
10:35 PM 39.2 °F - 37.4 °F 93% 30.32 in 10.0 mi Calm Calm - N/A   Clear
10:55 PM 39.2 °F - 37.4 °F 93% 30.32 in 10.0 mi Calm Calm - N/A   Clear
11:15 PM 39.2 °F - 37.4 °F 93% 30.31 in 10.0 mi Calm Calm - N/A   Clear
11:35 PM 35.6 °F - 35.6 °F 100% 30.32 in 10.0 mi Calm Calm - N/A   Clear
11:55 PM 35.6 °F - 35.6 °F 100% 30.31 in 10.0 mi Calm Calm - N/A   Clear